カタログに戻る

COSMOS 1550

運用中軍事PO
NORAD 14965·PAYLOAD·🇷🇺 Russia

打ち上げ May 11, 1984 から Plesetsk Cosmodrome

Loading…

次のパス (今後24時間)

TLE

最新Source: Space-Track

元期: Sep 14, 2026, 02:56 UTC

1 14965U 84043A   26257.12290550  .00000065  00000-0  53881-4 0  9990
2 14965  82.9758 154.7731 0026602 130.0527  34.5121 13.73029838122003

AllMySatでCOSMOS 1550をリアルタイム追跡

Download on the App Store